Change the Weather History Date:

Tuesday, June 25, 2013

  Actual Average Record
Temperature  
Mean Temperature 52 °F -  
Max Temperature 54 °F 74 °F 86 °F (2006)
Min Temperature 50 °F 53 °F 46 °F (1997)
Degree Days  
Heating Degree Days 13    
Growing Degree Days 2 (Base 50)    
Moisture  
Dew Point 51 °F    
Average Humidity 93    
Maximum Humidity 100    
Minimum Humidity 87    
Precipitation  
Precipitation 0.47 in 0.09 in - ()
Sea Level Pressure  
Sea Level Pressure 30.08 in    
Wind  
Wind Speed 12 mph ()    
Max Wind Speed 21 mph    
Max Gust Speed -    
Visibility 5.6 miles    
Events Rain    
Averages and records for this station are not official NWS values.
T = Trace of Precipitation, MM = Missing Value Source: Averaged Metar Reports

Daily Weather History Graph

Daily Weather History Graph

Search for Another Location

Airport or City:

Trip Planner

Search our weather history database for the weather conditions in past years. The results will help you decide how hot, cold, wet, or windy it might be!

Date:

Astronomy

Jun. 25, 2013 Rise Set
Actual Time 4:54 AM CEST 9:16 PM CEST
Civil Twilight 4:09 AM CEST 10:01 PM CEST
Nautical Twilight 3:03 AM CEST 11:07 PM CEST
Astronomical Twilight 1:38 AM CEST 12:33 AM CEST
Moon 10:30 PM CEST (6/25) 7:29 AM CEST (6/25)
Length of Visible Light 17h 52m
Length of Day
16h 22m
Waning Gibbous, 94% of the Moon is Illuminated
Jun 25
Waning Gibbous
Jun 30
Last Quarter
Jul 8
New
Jul 16
First Quarter
Jul 22
Full

Hourly Weather History & Observations

Time (CEST) Temp. Dew Point Humidity Pressure Visibility Wind Dir Wind Speed Gust Speed Precip Events Conditions
12:00 AM 53.6 °F 53.6 °F 100% 30.06 in 3.7 mi NNW 6.9 mph - N/A Rain Rain
12:30 AM 53.6 °F 51.8 °F 94% 30.06 in 4.3 mi North 4.6 mph - N/A Rain Rain
1:00 AM 53.6 °F 53.6 °F 100% 30.06 in 3.1 mi NNW 5.8 mph - N/A Rain Rain
1:05 AM 53.6 °F 53.6 °F 100% 30.06 in 3.1 mi NNW 8.1 mph - N/A Rain Rain
1:30 AM 53.6 °F 53.6 °F 100% 30.06 in 3.1 mi NNW 10.4 mph - N/A Rain Rain
2:00 AM 54 °F 53 °F 95% 30.06 in 3 mi NW 6.7 mph - - Rain Rain
2:00 AM 53.6 °F 53.6 °F 100% 30.04 in 3.1 mi NW 5.8 mph - N/A Rain Rain
2:08 AM 53.6 °F 53.6 °F 100% 30.04 in 3.7 mi WNW 9.2 mph - N/A Rain Rain
2:30 AM 53.6 °F 53.6 °F 100% 30.04 in 3.7 mi NW 15.0 mph - N/A Rain Rain
2:38 AM 53.6 °F 53.6 °F 100% 30.04 in 3.7 mi WNW 18.4 mph - N/A Rain Rain
3:00 AM 53.6 °F 53.6 °F 100% 30.04 in 5.6 mi NW 18.4 mph - N/A Rain Rain
3:30 AM 53.6 °F 51.8 °F 94% 30.04 in 5.6 mi NW 16.1 mph - N/A Rain Rain
4:00 AM 53.6 °F 51.8 °F 94% 30.04 in 5.0 mi WNW 15.0 mph - N/A Rain Rain
4:30 AM 53.6 °F 51.8 °F 94% 30.04 in 4.3 mi NW 13.8 mph - N/A Rain Rain
5:00 AM 53.6 °F 51.8 °F 94% 30.04 in 3.7 mi WNW 13.8 mph - N/A Rain Rain
5:30 AM 53.6 °F 51.8 °F 94% 30.04 in 4.3 mi WNW 15.0 mph - N/A Rain Rain
6:00 AM 53.6 °F 51.8 °F 94% 30.04 in 4.3 mi NW 16.1 mph - N/A Rain Rain
6:30 AM 53.6 °F 51.8 °F 94% 30.04 in 5.0 mi WNW 15.0 mph - N/A Rain Rain
7:00 AM 53.6 °F 51.8 °F 94% 30.04 in 5.0 mi WNW 15.0 mph - N/A Rain Rain
7:30 AM 53.6 °F 51.8 °F 94% 30.04 in 5.0 mi WNW 16.1 mph - N/A Rain Rain
8:00 AM 53 °F 52 °F 96% 30.04 in 6 mi WNW 13.4 mph - - Rain Rain
8:00 AM 53.6 °F 51.8 °F 94% 30.04 in 5.6 mi WNW 17.3 mph - N/A Rain Rain
8:30 AM 53.6 °F 51.8 °F 94% 30.04 in 5.6 mi WNW 16.1 mph - N/A Rain Rain
9:00 AM 53.6 °F 51.8 °F 94% 30.04 in 5.6 mi WNW 18.4 mph - N/A Rain Rain
9:30 AM 53.6 °F 51.8 °F 94% 30.04 in 5.6 mi WNW 20.7 mph - N/A Rain Rain
10:00 AM 53.6 °F 51.8 °F 94% 30.04 in 6.2 mi NW 18.4 mph - N/A Rain Light Rain
10:15 AM 53.6 °F 51.8 °F 94% 30.06 in 6.2 mi WNW 18.4 mph - N/A Rain Light Rain
10:30 AM 53.6 °F 51.8 °F 94% 30.06 in 6.2 mi WNW 18.4 mph - N/A Rain Light Rain
11:00 AM 53.6 °F 51.8 °F 94% 30.06 in 6.2 mi NW 16.1 mph - N/A Rain Light Rain
11:30 AM 53.6 °F 51.8 °F 94% 30.06 in 6.2 mi WNW 17.3 mph - N/A Rain Light Rain
12:00 PM 53.6 °F 51.8 °F 94% 30.06 in 6.2 mi WNW 16.1 mph - N/A Rain Light Rain
12:30 PM 53.6 °F 51.8 °F 94% 30.06 in 6.2 mi WNW 17.3 mph - N/A Rain Light Rain
12:43 PM 53.6 °F 51.8 °F 94% 30.09 in 6.2 mi NW 18.4 mph - N/A Rain Light Rain
1:00 PM 53.6 °F 51.8 °F 94% 30.09 in 5.6 mi NW 15.0 mph - N/A Rain Rain
1:05 PM 53.6 °F 51.8 °F 94% 30.09 in 5.0 mi NW 13.8 mph - N/A Rain Rain
1:23 PM 53.6 °F 51.8 °F 94% 30.09 in 6.2 mi NW 16.1 mph - N/A Rain Light Rain
1:30 PM 53.6 °F 51.8 °F 94% 30.09 in 6.2 mi NW 17.3 mph - N/A Rain Light Rain
1:41 PM 53.6 °F 51.8 °F 94% 30.09 in 6.2 mi NW 16.1 mph - N/A Rain Light Rain
2:00 PM 53 °F 51 °F 91% 30.12 in 9 mi NW 15.7 mph - - Rain Light Rain
2:00 PM 53.6 °F 50.0 °F 88% 30.09 in 6.2 mi NW 19.6 mph - N/A Rain Light Rain
2:30 PM 53.6 °F 50.0 °F 88% 30.09 in 6.2 mi NW 18.4 mph - N/A Rain Light Rain
3:00 PM 53.6 °F 50.0 °F 88% 30.12 in 6.2 mi WNW 15.0 mph - N/A Rain Light Rain
3:30 PM 53.6 °F 50.0 °F 88% 30.12 in 6.2 mi WNW 15.0 mph - N/A Rain Light Rain
3:53 PM 53.6 °F 50.0 °F 88% 30.12 in 6.2 mi WNW 15.0 mph - N/A Rain Light Rain
4:00 PM 53.6 °F 50.0 °F 88% 30.12 in 6.2 mi WNW 15.0 mph - N/A Rain Light Rain
4:30 PM 53.6 °F 50.0 °F 88% 30.12 in 6.2 mi WNW 17.3 mph - N/A Rain Light Rain
5:00 PM 53.6 °F 50.0 °F 88% 30.12 in 6.2 mi NW 18.4 mph - N/A Rain Light Rain
5:30 PM 53.6 °F 50.0 °F 88% 30.12 in 6.2 mi NW 16.1 mph - N/A Rain Light Rain
6:00 PM 51.8 °F 50.0 °F 94% 30.12 in 6.2 mi WNW 15.0 mph - N/A Rain Light Rain
6:30 PM 51.8 °F 50.0 °F 94% 30.12 in 6.2 mi WNW 15.0 mph - N/A Rain Light Rain
7:00 PM 51.8 °F 50.0 °F 94% 30.12 in 6.2 mi WNW 15.0 mph - N/A Rain Light Rain
7:30 PM 51.8 °F 50.0 °F 94% 30.12 in 6.2 mi WNW 16.1 mph - N/A Rain Light Rain
8:00 PM 51 °F 49 °F 89% 30.15 in 12 mi WNW 11.2 mph - - Rain Light Rain
8:00 PM 51.8 °F 48.2 °F 88% 30.12 in 6.2 mi WNW 16.1 mph - N/A Rain Light Rain
8:30 PM 51.8 °F 48.2 °F 88% 30.12 in 6.2 mi WNW 16.1 mph - N/A Rain Light Rain
9:00 PM 50.0 °F 48.2 °F 94% 30.15 in 6.2 mi WNW 16.1 mph - N/A Rain Light Rain
9:30 PM 50.0 °F 48.2 °F 94% 30.15 in 6.2 mi West 10.4 mph - N/A Rain Light Rain
10:00 PM 50.0 °F 48.2 °F 94% 30.15 in 6.2 mi West 13.8 mph - N/A Rain Light Rain
10:30 PM 50.0 °F 46.4 °F 87% 30.15 in 6.2 mi WNW 12.7 mph - N/A   Mostly Cloudy
11:00 PM 50.0 °F 46.4 °F 87% 30.15 in 6.2 mi West 11.5 mph - N/A   Scattered Clouds
11:30 PM 50.0 °F 46.4 °F 87% 30.15 in 6.2 mi West 11.5 mph - N/A   Scattered Clouds